Abingdon, VA

12:57 AM EST on February 11, 2016 (GMT -0500)
Virginia Highlands

Weather History for KVJI - March, 2014

Change the Weather History Date:

Thursday, March 13, 2014

  Actual Average (KTRI) Record (KTRI)
Temperature  
Mean Temperature 32 °F 46 °F  
Max Temperature 38 °F 58 °F 78 °F (1967)
Min Temperature 25 °F 34 °F 6 °F (1960)
Degree Days  
Heating Degree Days 34 19  
Month to date heating degree days 269  
Since 1 July heating degree days 3651  
Cooling Degree Days 0 0  
Month to date cooling degree days 0  
Year to date cooling degree days 0  
Moisture  
Dew Point 8 °F    
Average Humidity 41    
Maximum Humidity 86    
Minimum Humidity 18    
Precipitation  
Precipitation 0.00 in 0.10 in 1.39 in (1975)
Month to date precipitation 1.42  
Year to date precipitation 8.24  
Snow  
Snow 0.00 in 0.10 in - ()
Month to date snowfall 0.8  
Since 1 July snowfall 11.6  
Snow Depth -    
Sea Level Pressure  
Sea Level Pressure 30.02 in    
Wind  
Wind Speed 11 mph (NNW)    
Max Wind Speed 21 mph    
Max Gust Speed 28 mph    
Visibility 9 miles    
Events Snow    
T = Trace of Precipitation, MM = Missing Value Source: NWS Daily Summary

Daily Weather History Graph

Daily Weather History Graph

Search for Another Location

Airport or City:

Trip Planner

Search our weather history database for the weather conditions in past years. The results will help you decide how hot, cold, wet, or windy it might be!

Date:

Astronomy

Mar. 13, 2014 Rise Set
Actual Time 7:41 AM EDT 7:33 PM EDT
Civil Twilight 7:16 AM EDT 7:59 PM EDT
Nautical Twilight 6:46 AM EDT 8:29 PM EDT
Astronomical Twilight 6:16 AM EDT 8:59 PM EDT
Moon 5:01 PM EDT (3/13) 5:44 AM EDT (3/13)
Length of Visible Light 12h 43m
Length of Day
11h 51m
Waxing Gibbous, 91% of the Moon is Illuminated
Mar 13
Waxing Gibbous
Mar 16
Full
Mar 23
Last Quarter
Mar 30
New
Apr 7
First Quarter

Hourly Weather History & Observations

Time (EDT) Temp. Windchill Dew Point Humidity Pressure Visibility Wind Dir Wind Speed Gust Speed Precip Events Conditions
12:15 AM 31.8 °F 22.8 °F 20.5 °F 63% 29.80 in 10.0 mi NNW 11.5 mph 26.5 mph N/A   Overcast
12:35 AM 31.1 °F 20.9 °F 21.7 °F 68% 29.81 in 10.0 mi NNW 13.8 mph 20.7 mph N/A   Overcast
12:55 AM 30.0 °F 21.1 °F 25.0 °F 82% 29.82 in 1.5 mi NW 10.4 mph 16.1 mph N/A Snow Light Snow
1:15 AM 29.8 °F 18.9 °F 23.7 °F 78% 29.83 in 4.0 mi NNW 15.0 mph 20.7 mph N/A Snow Light Snow
1:35 AM 29.1 °F 20.6 °F 24.3 °F 82% 29.83 in 1.5 mi NNW 9.2 mph 20.7 mph N/A Snow Light Snow
1:55 AM 28.8 °F 17.5 °F 25.2 °F 86% 29.83 in 2.5 mi NW 15.0 mph 21.9 mph N/A Snow Light Snow
2:15 AM 30.0 °F 19.1 °F 21.9 °F 72% 29.84 in 7.0 mi NW 15.0 mph 20.7 mph N/A Snow Light Snow
2:35 AM 30.0 °F 18.3 °F 20.7 °F 68% 29.85 in 10.0 mi NW 17.3 mph 21.9 mph N/A   Overcast
2:55 AM 29.5 °F 19.3 °F 18.5 °F 64% 29.85 in 10.0 mi NW 12.7 mph 23.0 mph N/A   Mostly Cloudy
3:15 AM 29.3 °F 19.6 °F 18.9 °F 65% 29.86 in 10.0 mi NW 11.5 mph - N/A   Mostly Cloudy
3:35 AM 28.9 °F 17.7 °F 14.9 °F 56% 29.86 in 10.0 mi NW 15.0 mph 27.6 mph N/A   Overcast
3:55 AM 28.6 °F 19.9 °F 14.2 °F 55% 29.85 in 10.0 mi NW 9.2 mph 19.6 mph N/A   Overcast
4:15 AM 28.8 °F 19.5 °F 14.5 °F 55% 29.85 in 10.0 mi NW 10.4 mph 19.6 mph N/A   Overcast
4:35 AM 28.4 °F 20.4 °F 16.0 °F 60% 29.85 in 10.0 mi NNW 8.1 mph - N/A Snow Light Snow
4:55 AM 28.4 °F 21.2 °F 16.7 °F 62% 29.86 in 10.0 mi NW 6.9 mph 20.7 mph N/A Snow Light Snow
5:15 AM 28.4 °F 16.6 °F 16.7 °F 62% 29.86 in 10.0 mi NW 16.1 mph 20.7 mph N/A Snow Light Snow
5:35 AM 27.5 °F 18.6 °F 19.2 °F 71% 29.88 in 3.0 mi NNW 9.2 mph - N/A Snow Light Snow
5:55 AM 27.1 °F 18.2 °F 19.0 °F 72% 29.88 in 7.0 mi NNW 9.2 mph 18.4 mph N/A Snow Light Snow
6:15 AM 27.5 °F 19.3 °F 16.7 °F 64% 29.89 in 10.0 mi NNW 8.1 mph 17.3 mph N/A   Overcast
6:35 AM 27.5 °F 16.8 °F 13.3 °F 55% 29.90 in 10.0 mi NW 12.7 mph 26.5 mph N/A   Mostly Cloudy
6:55 AM 27.3 °F 16.6 °F 14.5 °F 59% 29.92 in 10.0 mi NW 12.7 mph 17.3 mph N/A   Overcast
7:15 AM 26.8 °F 17.1 °F 14.9 °F 61% 29.93 in 10.0 mi NW 10.4 mph 20.7 mph N/A   Overcast
7:35 AM 26.4 °F 15.5 °F 13.6 °F 59% 29.94 in 10.0 mi NNW 12.7 mph 21.9 mph N/A   Overcast
7:55 AM 26.6 °F 16.2 °F 9.5 °F 49% 29.96 in 10.0 mi NNW 11.5 mph 24.2 mph N/A   Overcast
8:15 AM 25.9 °F 14.8 °F 9.5 °F 50% 29.97 in 10.0 mi NNW 12.7 mph 19.6 mph N/A   Mostly Cloudy
8:35 AM 25.7 °F 15.1 °F 2.3 °F 37% 29.99 in 10.0 mi NNW 11.5 mph 21.9 mph N/A   Scattered Clouds
8:55 AM 25.7 °F 14.0 °F 4.1 °F 40% 30.00 in 10.0 mi NNW 13.8 mph 20.7 mph N/A   Clear
9:15 AM 26.2 °F 16.4 °F 3.9 °F 39% 30.01 in 10.0 mi NNW 10.4 mph 18.4 mph N/A   Clear
9:35 AM 26.4 °F 13.2 °F 1.6 °F 34% 30.02 in 10.0 mi NNW 18.4 mph 24.2 mph N/A   Clear
9:55 AM 26.4 °F 16.6 °F 0.9 °F 33% 30.03 in 10.0 mi NW 10.4 mph 21.9 mph N/A   Clear
10:15 AM 26.6 °F 15.2 °F -0.0 °F 32% 30.04 in 10.0 mi NW 13.8 mph 25.3 mph N/A   Clear
10:35 AM 27.1 °F 15.4 °F 3.0 °F 36% 30.05 in 10.0 mi NNW 15.0 mph 23.0 mph N/A   Clear
10:55 AM 27.5 °F 15.4 °F 2.5 °F 34% 30.05 in 10.0 mi NNW 16.1 mph 25.3 mph N/A   Clear
11:15 AM 28.2 °F 17.7 °F 3.9 °F 36% 30.06 in 10.0 mi NW 12.7 mph 24.2 mph N/A   Clear
11:35 AM 29.7 °F 20.1 °F 5.5 °F 36% 30.07 in 10.0 mi NW 11.5 mph - N/A   Clear
11:55 AM 29.8 °F 22.2 °F 4.3 °F 34% 30.08 in 10.0 mi NNW 8.1 mph 19.6 mph N/A   Clear
12:15 PM 30.9 °F 21.2 °F 5.2 °F 34% 30.08 in 10.0 mi NNW 12.7 mph 20.7 mph N/A   Clear
12:35 PM 31.1 °F 19.7 °F 2.3 °F 29% 30.08 in 10.0 mi North 17.3 mph 26.5 mph N/A   Clear
12:55 PM 31.8 °F 21.0 °F 2.8 °F 29% 30.09 in 10.0 mi North 16.1 mph 21.9 mph N/A   Clear
1:15 PM 32.2 °F 22.7 °F 4.1 °F 31% 30.09 in 10.0 mi NNW 12.7 mph 20.7 mph N/A   Clear
1:35 PM 32.0 °F 22.5 °F 1.4 °F 27% 30.09 in 10.0 mi North 12.7 mph 21.9 mph N/A   Clear
1:55 PM 33.1 °F 23.9 °F 1.6 °F 26% 30.09 in 10.0 mi North 12.7 mph 25.3 mph N/A   Clear
2:15 PM 33.4 °F 23.5 °F -0.4 °F 24% 30.09 in 10.0 mi NNW 15.0 mph 24.2 mph N/A   Clear
2:35 PM 34.2 °F 24.8 °F 1.2 °F 25% 30.09 in 10.0 mi North 13.8 mph 23.0 mph N/A   Clear
2:55 PM 35.1 °F 25.5 °F -0.2 °F 22% 30.08 in 10.0 mi NNW 15.0 mph 23.0 mph N/A   Clear
3:15 PM 35.2 °F 25.8 °F -0.0 °F 22% 30.08 in 10.0 mi NW 15.0 mph 20.7 mph N/A   Clear
3:35 PM 36.1 °F 29.3 °F 1.4 °F 23% 30.08 in 10.0 mi North 9.2 mph 18.4 mph N/A   Clear
3:55 PM 36.7 °F 28.9 °F 1.0 °F 22% 30.08 in 10.0 mi NW 11.5 mph 19.6 mph N/A   Clear
4:15 PM 37.4 °F 29.3 °F 0.5 °F 21% 30.09 in 10.0 mi NNW 12.7 mph 17.3 mph N/A   Clear
4:35 PM 36.9 °F 26.2 °F -2.2 °F 19% 30.09 in 10.0 mi NW 20.7 mph 26.5 mph N/A   Clear
4:55 PM 37.4 °F 28.9 °F -2.0 °F 19% 30.09 in 10.0 mi NNW 13.8 mph 21.9 mph N/A   Clear
5:15 PM 37.9 °F 30.5 °F -0.6 °F 20% 30.09 in 10.0 mi NNW 11.5 mph 20.7 mph N/A   Clear
5:35 PM 38.3 °F 30.1 °F 1.2 °F 21% 30.09 in 10.0 mi North 13.8 mph 19.6 mph N/A   Clear
5:55 PM 37.9 °F 29.6 °F -2.2 °F 18% 30.10 in 10.0 mi NNW 13.8 mph 20.7 mph N/A   Clear
6:15 PM 38.5 °F 31.6 °F -0.8 °F 19% 30.11 in 10.0 mi NNW 10.4 mph - N/A   Clear
6:35 PM 37.9 °F 30.9 °F -1.7 °F 19% 30.11 in 10.0 mi North 10.4 mph 16.1 mph N/A   Clear
6:55 PM 37.8 °F 30.2 °F -0.6 °F 20% 30.12 in 10.0 mi NW 11.5 mph - N/A   Clear
7:15 PM 37.0 °F 33.3 °F 0.3 °F 21% 30.13 in 10.0 mi NNW 4.6 mph - N/A   Clear
7:35 PM 36.1 °F 31.4 °F 0.5 °F 22% 30.14 in 10.0 mi NNW 5.8 mph - N/A   Clear
7:55 PM 35.1 °F 30.1 °F 2.1 °F 25% 30.14 in 10.0 mi NNW 5.8 mph - N/A   Clear
8:15 PM 34.2 °F 30.0 °F 3.2 °F 27% 30.15 in 10.0 mi NNW 4.6 mph - N/A   Clear
8:35 PM 32.9 °F 28.5 °F 4.5 °F 30% 30.16 in 10.0 mi WNW 4.6 mph - N/A   Clear
8:55 PM 32.5 °F 29.3 °F 5.4 °F 32% 30.16 in 10.0 mi WNW 3.5 mph - N/A   Clear
9:15 PM 32.2 °F 27.7 °F 4.3 °F 31% 30.16 in 10.0 mi NW 4.6 mph - N/A   Clear
9:35 PM 32.0 °F 28.7 °F 4.8 °F 32% 30.17 in 10.0 mi NW 3.5 mph - N/A   Clear
9:55 PM 32.2 °F 27.7 °F 3.7 °F 30% 30.18 in 10.0 mi WNW 4.6 mph - N/A   Clear
10:15 PM 32.0 °F 27.5 °F 4.5 °F 31% 30.18 in 10.0 mi WNW 4.6 mph - N/A   Clear
10:35 PM 32.2 °F 27.7 °F 5.9 °F 33% 30.18 in 10.0 mi West 4.6 mph - N/A   Clear
10:55 PM 31.8 °F 28.5 °F 7.2 °F 36% 30.18 in 10.0 mi WSW 3.5 mph - N/A   Clear
11:15 PM 30.9 °F - 7.7 °F 38% 30.18 in 10.0 mi Calm Calm - N/A   Clear
11:35 PM 30.2 °F - 8.8 °F 41% 30.18 in 10.0 mi Calm Calm - N/A   Clear
11:55 PM 29.3 °F - 8.6 °F 42% 30.18 in 10.0 mi Calm Calm - N/A   Clear